Fresno, CA

8:10 AM PST on November 12, 2019 (GMT -0800)
Fresno Yosemite International

Weather History for KFAT - September, 2019

Change the Weather History Date:

Sunday, September 15, 2019

  Actual Average Record
Temperature  
Mean Temperature 82 °F 77 °F  
Max Temperature 96 °F 91 °F 104 °F (1983)
Min Temperature 68 °F 62 °F 45 °F (1970)
Degree Days  
Heating Degree Days 0    
Month to date heating degree days 0  
Since 1 July heating degree days 0  
Cooling Degree Days 17    
Month to date cooling degree days 252  
Year to date cooling degree days 2193  
Growing Degree Days 32 (Base 50)    
Moisture  
Dew Point 47 °F    
Average Humidity 35    
Maximum Humidity 53    
Minimum Humidity 16    
Precipitation  
Precipitation 0.00 in 0.00 in 0.73 in (1910)
Month to date precipitation 0.00 0.05  
Year to date precipitation 9.52 7.91  
Snow  
Snow 0.00 in - - ()
Month to date snowfall 0.0  
Since 1 July snowfall 0.0  
Since 1 September snowfall 0.0  
Snow Depth 0.00 in    
Sea Level Pressure  
Sea Level Pressure 29.80 in    
Wind  
Wind Speed 7 mph (SSW)    
Max Wind Speed 22 mph    
Max Gust Speed 27 mph    
Visibility 10 miles    
Events      
T = Trace of Precipitation, MM = Missing Value Source: NWS Daily Summary

Daily Weather History Graph

Daily Weather History Graph

Search for Another Location

Airport or City:

Astronomy

Sep. 15, 2019 Rise Set
Actual Time 6:41 AM PDT 7:06 PM PDT
Civil Twilight 6:15 AM PDT 7:32 PM PDT
Nautical Twilight 5:44 AM PDT 8:02 PM PDT
Astronomical Twilight 5:13 AM PDT 8:33 PM PDT
Moon 8:18 PM PDT (9/15) 7:55 AM PDT (9/15)
Length of Visible Light 13h 17m
Length of Day
12h 25m
Full, 98% of the Moon is Illuminated
Sep 15
Full
Sep 21
Last Quarter
Sep 28
New
Oct 5
First Quarter
Oct 13
Full

Hourly Weather History & Observations

Time (PDT) Temp. Dew Point Humidity Pressure Visibility Wind Dir Wind Speed Gust Speed Precip Events Conditions
12:53 AM 77.0 °F 46.9 °F 34% 29.83 in 10.0 mi Calm Calm - N/A   Scattered Clouds
1:53 AM 73.9 °F 48.0 °F 40% 29.83 in 10.0 mi ENE 5.8 mph - N/A   Scattered Clouds
2:53 AM 73.9 °F 46.9 °F 38% 29.82 in 10.0 mi Calm Calm - N/A   Scattered Clouds
3:53 AM 73.0 °F 48.9 °F 42% 29.81 in 10.0 mi SSW 3.5 mph - N/A   Scattered Clouds
4:53 AM 72.0 °F 50.0 °F 46% 29.81 in 10.0 mi Calm Calm - N/A   Scattered Clouds
5:53 AM 69.1 °F 51.1 °F 53% 29.81 in 10.0 mi NW 3.5 mph - N/A   Scattered Clouds
6:53 AM 69.1 °F 51.1 °F 53% 29.82 in 10.0 mi Calm Calm - N/A   Mostly Cloudy
7:53 AM 72.0 °F 48.0 °F 43% 29.83 in 10.0 mi Calm Calm - N/A   Mostly Cloudy
8:53 AM 77.0 °F 46.9 °F 34% 29.84 in 10.0 mi ESE 8.1 mph - N/A   Scattered Clouds
9:53 AM 82.0 °F 48.9 °F 31% 29.84 in 10.0 mi SE 10.4 mph - N/A   Mostly Cloudy
10:53 AM 84.9 °F 46.0 °F 26% 29.83 in 10.0 mi SE 9.2 mph - N/A   Mostly Cloudy
11:53 AM 88.0 °F 48.0 °F 25% 29.83 in 10.0 mi SSE 9.2 mph - N/A   Mostly Cloudy
12:53 PM 91.0 °F 50.0 °F 24% 29.81 in 10.0 mi South 4.6 mph - N/A   Mostly Cloudy
1:53 PM 95.0 °F 45.0 °F 18% 29.79 in 10.0 mi SE 5.8 mph - N/A   Mostly Cloudy
2:53 PM 96.1 °F 48.0 °F 19% 29.77 in 10.0 mi South 6.9 mph - N/A   Mostly Cloudy
3:53 PM 95.0 °F 46.0 °F 19% 29.75 in 10.0 mi South 5.8 mph - N/A   Mostly Cloudy
4:53 PM 95.0 °F 43.0 °F 17% 29.74 in 10.0 mi SSW 4.6 mph - N/A   Mostly Cloudy
5:53 PM 93.9 °F 42.1 °F 17% 29.73 in 10.0 mi SSW 4.6 mph - N/A   Scattered Clouds
6:53 PM 91.0 °F 51.1 °F 25% 29.74 in 10.0 mi NW 6.9 mph - N/A   Scattered Clouds
7:53 PM 87.1 °F 46.9 °F 25% 29.75 in 10.0 mi NW 10.4 mph - N/A   Scattered Clouds
8:53 PM 82.9 °F 37.9 °F 20% 29.77 in 10.0 mi NW 8.1 mph - N/A   Partly Cloudy
9:53 PM 78.1 °F 43.0 °F 29% 29.78 in 10.0 mi NW 13.8 mph - N/A   Partly Cloudy
10:53 PM 73.9 °F 42.1 °F 32% 29.81 in 10.0 mi NW 19.6 mph - N/A   Partly Cloudy
11:53 PM 72.0 °F 46.9 °F 41% 29.83 in 10.0 mi NNW 8.1 mph - N/A   Clear